[Iaude] MPEC M90: 2022 MO2 [a=1.56,e=0.37,i=25.9,H=20.4]

mpec at marsden.cfa.harvard.edu mpec at marsden.cfa.harvard.edu
Tue Jun 28 07:18:47 EDT 2022


M.P.E.C. 2022-M90                                 Issued 2022 June 28, 11:17 UT

     The Minor Planet Electronic Circulars contain information on unusual
         minor planets and routine data on comets.  They are published
    on behalf of Division F of the International Astronomical Union by the
          Minor Planet Center, Smithsonian Astrophysical Observatory,
                          Cambridge, MA 02138, U.S.A.

             Prepared using the Tamkin Foundation Computer Network

                              MPC at CFA.HARVARD.EDU
            URL https://www.minorplanetcenter.net/    ISSN 1523-6714

                                    2022 MO2                                    


Observations:
     K22M02O* C2022 06 24.41747317 01 10.985+26 22 35.24         21.90wUEM090F52
     K22M02O  C2022 06 24.42847717 01 09.694+26 22 27.13         21.97wUEM090F52
     K22M02O  C2022 06 24.43946417 01 08.374+26 22 18.68         22.23wUEM090F52
     K22M02O  C2022 06 24.49395217 01 01.901+26 21 36.97         21.29GVEM090F52
     K22M02O  C2022 06 24.49470917 01 01.833+26 21 36.63         21.14GVEM090F52
     K22M02O ^C2022 06 25.35978816 59 24.218+26 10 23.59         21.79GVEM090568
     K22M02O ^C2022 06 25.36076616 59 24.103+26 10 22.81         21.86GVEM090568
     K22M02O ^C2022 06 25.36174616 59 23.987+26 10 22.01         21.84GVEM090568
     K22M02O KC2022 06 26.13167116 57 56.96 +25 59 39.5          21.7 VuEM090H21
     K22M02O KC2022 06 26.13446716 57 56.62 +25 59 37.3          22.1 VuEM090H21
     K22M02O KC2022 06 26.13866316 57 56.12 +25 59 33.9          22.0 VuEM090H21
     K22M02O KC2022 06 26.14145916 57 55.79 +25 59 31.5          21.8 VuEM090H21
     K22M02O KC2022 06 27.13569316 56 03.67 +25 44 53.8          21.8 VuEM090H21
     K22M02O KC2022 06 27.13709216 56 03.53 +25 44 53.0          21.9 VuEM090H21
     K22M02O KC2022 06 28.11815416 54 13.52 +25 29 26.8          21.5 VuEM090H21
     K22M02O KC2022 06 28.12654416 54 12.53 +25 29 18.4          21.5 VuEM090H21
     K22M02O KC2022 06 28.13736016 54 11.29 +25 29 08.2                uEM090H21
     K22M02O  C2022 06 28.19339216 54 05.260+25 28 14.94         22.1 GVEM090654
     K22M02O  C2022 06 28.21996316 54 02.159+25 27 49.27         21.9 GVEM090654
     K22M02O  C2022 06 28.26056816 53 57.437+25 27 09.62         21.8 GVEM090654

Observer details:
568 Mauna Kea.  Observers R. Wainscoat, L. Wells, T. Burdullis.  Measurers R.
    Weryk, R. Wainscoat.  3.6-m Canada-France-Hawaii Telescope + CCD.
654 Table Mountain Observatory, Wrightwood-PHMC.  Observers N. Evans, P. Choi,
    N. Saini, C. Zhai, R. Trahan, M. Shao.  1.0-m Reflector + CCD.
F52 Pan-STARRS 2, Haleakala.  Observers J. Bulger, T. Lowe, A. Schultz, I.
    Smith, K. Chambers, T. Dukes.  Measurers K. Chambers, S. Chastel, T. de
    Boer, J. Fairlamb, H. Gao, M. Huber, C.-C. Lin, E. Magnier, Y.
    Ramanjooloo, R. Wainscoat, R. Weryk.  1.8-m Ritchey-Chretien + CCD.
H21 Astronomical Research Observatory, Westfield.  Observer R. Holmes.
    Measurers T. Linder, R. Holmes, L. Horn.  0.76-m f/3.0 astrograph + CCD.

Orbital elements:
2022 MO2                                                 Earth MOID = 0.0976 AU
Epoch 2022 Aug. 9.0 TT = JDT 2459800.5                  Veres                   
M 316.64632              (2000.0)            P               Q                  
n   0.50471568     Peri.  239.07190     +0.91384215     -0.25194397             
a   1.5623255      Node   133.29863     +0.29144726     +0.95303566             
e   0.3733205      Incl.   25.94905     -0.28275612     +0.16806924             
P   1.95           H   20.45          G   0.15           U   8                  
Residuals in seconds of arc
220624 F52  0.1-  0.1-    220625 568  0.0   0.0     220628 H21  1.2-  0.6-
220624 F52  0.2+  0.1+    220626 H21  0.3+  0.1+    220628 H21  1.4-  0.9-
220624 F52  0.1+  0.0     220626 H21  0.2+  0.2+    220628 H21  1.2-  0.7-
220624 F52  0.1-  0.1+    220626 H21  0.1+  0.3+    220628 654  0.1+  0.1-
220624 F52  0.2+  0.4+    220626 H21  0.1+  0.3+    220628 654  0.1-  0.0
220625 568  0.0   0.0     220627 H21  0.1+  0.2+    220628 654  0.1+  0.1-
220625 568  0.0   0.0     220627 H21  0.4+  0.7+

Ephemeris:
2022 MO2                 a,e,i = 1.56, 0.37, 26                  q = 0.9791
Date    TT    R. A. (2000) Decl.     Delta      r    Elong.  Phase     V
2022 05 29    17 45 08.3 +26 40 53   0.8454  1.6707   127.8    28.7    22.5
...
2022 06 13    17 22 25.0 +27 41 46   0.7492  1.5977   129.1    29.5    22.1
...
2022 06 21    17 07 40.3 +26 59 22   0.7083  1.5570   128.2    30.9    22.0
...
2022 06 27    16 56 18.8 +25 47 01   0.6825  1.5258   126.7    32.3    21.9
2022 06 28    16 54 26.6 +25 31 26   0.6786  1.5205   126.4    32.6    21.9
2022 06 29    16 52 35.3 +25 14 51   0.6748  1.5152   126.0    32.9    21.9
...
2022 07 05    16 41 54.2 +23 14 21   0.6545  1.4833   123.7    34.8    21.8
...
2022 07 13    16 29 29.6 +19 40 51   0.6333  1.4400   119.8    37.8    21.8
...
2022 07 28    16 14 17.8 +10 46 38   0.6100  1.3575   110.8    44.4    21.7

M. P. C. Staff               (C) Copyright 2022 MPC           M.P.E.C. 2022-M90




More information about the Iaude mailing list